Location: Étang Rond
(42.7927°N, 1.0661°E)
Time: 15:50:10
(UTC+00:00)

Cosmos 2360 Rocket - Visible Passes

Search period start: 17 February 2026 00:00
Search period end: 27 February 2026 00:00
Orbit: 834 x 842 km, 71.0° (Epoch: 16 February)

Date Brightness Start Highest point End Pass type
(mag) Time Alt. Az. Time Alt. Az. Time Alt. Az.
17 Feb 3.3 05:39:21 10° S 05:44:42 48° ESE 05:50:04 10° NE visible
18 Feb 3.4 05:23:19 10° S 05:28:36 44° ESE 05:33:55 10° NE visible
19 Feb 3.5 05:07:18 10° S 05:12:30 41° ESE 05:17:44 10° NE visible
20 Feb 3.6 04:51:17 10° S 04:56:25 38° ESE 05:01:34 10° NE visible
21 Feb 3.7 04:35:17 10° S 04:40:19 35° ESE 04:45:23 10° NE visible
22 Feb 3.8 04:19:17 10° SSE 04:24:14 33° ESE 04:29:12 10° NE visible
22 Feb 2.7 06:02:56 10° SW 06:08:06 37° WNW 06:13:19 10° N visible
23 Feb 3.8 04:03:19 10° SSE 04:08:09 31° ESE 04:13:00 10° NE visible
23 Feb 2.6 05:46:42 10° SW 05:51:57 40° WNW 05:57:14 10° NNE visible
24 Feb 3.9 03:48:41 16° SSE 03:52:03 29° ESE 03:56:48 10° NE visible
24 Feb 2.6 05:30:31 10° SW 05:35:48 42° WNW 05:41:09 10° NNE visible
25 Feb 4.0 03:34:05 22° SE 03:35:58 27° ESE 03:40:34 10° NE visible
25 Feb 2.5 05:15:53 19° SW 05:19:39 45° WNW 05:25:03 10° NNE visible
26 Feb 4.0 03:19:13 24° ESE 03:19:53 25° ESE 03:24:21 10° NE visible
26 Feb 2.4 05:01:00 29° WSW 05:03:30 49° WNW 05:08:57 10° NNE visible
